KJAS

Details ICAO KJAS
Name JASPER CO BELL FLD
Region United States
Timezone America/Chicago (UTC-5.0)
Plans Departing 1
Arriving 1
Stats Elevation 213 ft / 65 m (AMSL)
Location 30.885707° -94.034937°
Runways 1
Magnetic Variation 1.585° E
Sunrise 2018-05-27 11:16:27 UTC / 2018-05-27 06:16:27 Local
Sunset 2018-05-28 01:13:05 UTC / 2018-05-27 20:13:05 Local
Advertisement - Login to hide

Runways

ID Width Length Bearing (true) Bearing (mag) Surface Threshold Offset Overrun Length
18 70 ft / 21 m 5,518 ft / 1,682 m 180.94° 179.36° Asphalt 0 ft / 0 m 0 ft / 0 m
36 70 ft / 21 m 5,518 ft / 1,682 m 0.94° 359.36° Asphalt 0 ft / 0 m 0 ft / 0 m

Map

Weather


0- 5 10 15 20 25 30 35+ Temperature / ° C

Clouds and Precipitation
Forecast for 2018-05-27 12:00 UTC. Updated an hour ago

Ground ~20,000 ft ~40,000 ft Winds

METAR

KJAS 271015Z AUTO 00000KT 1/4SM FG OVC002 18/18 A2983 RMK AO2 T01790177

TAF

Not found

Frequencies

Recorded 118.37 MHz AWOS 3
Unicom 122.80 MHz CTAF/UNICOM
Warning: Do not use this data for real-world aviation or navigation. No guarantee of current accuracy is given.